Regional Weather Roundup
Issued by NWS Raleigh/Durham, NC

Home | Current Version | Previous Version | Text Only | Print | Product List | Glossary On
Versions: 1 2 3 4 5 6 7 8 9 10 11 12 13 14 15 16 17 18 19 20 21 22 23 24 25 26 27 28
000
ASUS42 KRAH 232310
RWRRAH
NORTH CAROLINA WEATHER ROUNDUP
NATIONAL WEATHER SERVICE RALEIGH NC
700 PM EDT THU MAR 23 2017

NOTE: "FAIR" INDICATES FEW OR NO CLOUDS BELOW 12,000 FEET WITH NO
SIGNIFICANT WEATHER AND/OR OBSTRUCTIONS TO VISIBILITY.

NCZ001-053-055-056-065-067-240000-
WESTERN NORTH CAROLINA

CITY           SKY/WX    TMP DP  RH WIND       PRES   REMARKS
ASHEVILLE      PTCLDY    54  23  30 SE13G20   30.41S
JEFFERSON      CLEAR     45  20  37 SE5       30.40R
MORGANTON      CLEAR     56  24  28 SE5       30.48S
HICKORY        CLEAR     55  23  28 CALM      30.44S
RUTHERFORDTON  PTCLDY    56  25  29 S7        30.44F
MOUNT AIRY     CLEAR     55  17  22 S5        30.47S
BOONE          CLEAR     48  19  31 SE3       30.41S
$$

NCZ021-022-025-041-071-084-088-240000-
CENTRAL NORTH CAROLINA

CITY           SKY/WX    TMP DP  RH WIND       PRES   REMARKS
CHARLOTTE      PTCLDY    57  20  23 SE8       30.47S
GREENSBORO     PTCLDY    53  18  25 S7        30.46F
WINSTON-SALEM  CLEAR     55  14  19 S6        30.47S
RALEIGH-DURHAM PTCLDY    53  17  24 S7        30.51S
FORT BRAGG     CLEAR     54  21  28 E6        30.50S
FAYETTEVILLE   CLEAR     55  23  28 E6        30.51S
BURLINGTON     CLEAR     55  18  23 S5        30.48S
LAURINBURG     NOT AVBL
$$

NCZ011-015-027-028-043-044-047-080-103-240000-
NORTHEASTERN NORTH CAROLINA

CITY           SKY/WX    TMP DP  RH WIND       PRES   REMARKS
ROCKY MT-WILSO CLEAR     51  18  27 CALM      30.54S
GREENVILLE     CLEAR     50  25  37 SE6       30.54S
WASHINGTON     CLEAR     47  24  40 E6        30.56S
ELIZABETH CITY CLEAR     40  24  53 E8        30.59R WCI  34
MANTEO         CLEAR     38  25  59 NE8       30.60R WCI  32
CAPE HATTERAS  CLEAR     42  28  57 NE8       30.58S
$$

NCZ078-087-090-091-093-098-101-240000-
SOUTHEASTERN NORTH CAROLINA

CITY           SKY/WX    TMP DP  RH WIND       PRES   REMARKS
LUMBERTON      CLEAR     57  24  28 E6        30.50S
GOLDSBORO      CLEAR     52  21  29 E5        30.51F
KINSTON        CLEAR     52  21  30 E5        30.54F
KENANSVILLE    CLEAR     52  23  32 E3        30.53S
NEW BERN       CLEAR     47  33  58 SE9       30.57R
CHERRY POINT   CLEAR     46  29  51 E10       30.58R
BEAUFORT       CLEAR     45  30  55 NE6       30.57R
JACKSONVILLE   CLEAR     52  30  43 E12       30.54R
WILMINGTON     CLEAR     49  33  54 E10       30.55S
$$





USA.gov is the U.S. government's official web portal to all federal, state and local government web resources and services.